Weather History for KLYH - May, 2013

Change the Weather History Date:

Thursday, May 23, 2013

  Actual Average Record
Temperature  
Mean Temperature 70 °F 65 °F  
Max Temperature 79 °F 77 °F 94 °F (1941)
Min Temperature 61 °F 53 °F 33 °F (2002)
Degree Days  
Heating Degree Days 0 3  
Month to date heating degree days 116 104  
Since 1 July heating degree days 4258 4427  
Cooling Degree Days 5 3  
Month to date cooling degree days 62 37  
Year to date cooling degree days 102 55  
Growing Degree Days 20 (Base 50)    
Moisture  
Dew Point 64 °F    
Average Humidity 82    
Maximum Humidity 100    
Minimum Humidity 64    
Precipitation  
Precipitation 0.13 in 0.12 in 2.25 in (1913)
Month to date precipitation 5.25 2.67  
Year to date precipitation 19.57 15.63  
Snow  
Snow 0.00 in - - ()
Month to date snowfall 0.0  
Since 1 July snowfall 13.0  
Snow Depth 0.00 in    
Sea Level Pressure  
Sea Level Pressure 29.90 in    
Wind  
Wind Speed 5 mph (SSW)    
Max Wind Speed 15 mph    
Max Gust Speed 24 mph    
Visibility 9 miles    
Events Rain , Thunderstorm    
T = Trace of Precipitation, MM = Missing Value Source: NWS Daily Summary

Daily Weather History Graph

Daily Weather History Graph

Search for Another Location

Airport or City:

Trip Planner

Search our weather history database for the weather conditions in past years. The results will help you decide how hot, cold, wet, or windy it might be!

Date:

Astronomy

May. 23, 2013 Rise Set
Actual Time 6:02 AM EDT 8:25 PM EDT
Civil Twilight 5:32 AM EDT 8:55 PM EDT
Nautical Twilight 4:55 AM EDT 9:32 PM EDT
Astronomical Twilight 4:15 AM EDT 10:12 PM EDT
Moon 6:57 PM EDT (5/23) 4:43 AM EDT (5/23)
Length of Visible Light 15h 23m
Length of Day
14h 23m
Waxing Gibbous, 97% of the Moon is Illuminated
May 23
Waxing Gibbous
May 25
Full
May 31
Last Quarter
Jun 8
New
Jun 16
First Quarter

Hourly Weather History & Observations

Time (EDT) Temp. Dew Point Humidity Pressure Visibility Wind Dir Wind Speed Gust Speed Precip Events Conditions
12:54 AM 64.9 °F 64.0 °F 97% 29.92 in 10.0 mi South 3.5 mph - N/A   Scattered Clouds
1:54 AM 64.9 °F 64.0 °F 97% 29.93 in 10.0 mi SW 4.6 mph - 0.00 in Rain Light Rain
2:32 AM 64.4 °F 64.4 °F 100% 29.96 in 7.0 mi South 5.8 mph - 0.03 in Rain Light Rain
2:49 AM 64.4 °F 64.4 °F 100% 29.95 in 7.0 mi SSW 5.8 mph - 0.03 in   Mostly Cloudy
2:54 AM 64.9 °F 64.0 °F 97% 29.93 in 7.0 mi SSW 4.6 mph - 0.03 in   Overcast
3:01 AM 64.4 °F 64.4 °F 100% 29.95 in 7.0 mi South 5.8 mph - 0.00 in Rain Light Rain
3:41 AM 64.4 °F 64.4 °F 100% 29.96 in 8.0 mi SW 3.5 mph - 0.01 in   Overcast
3:54 AM 64.9 °F 64.0 °F 97% 29.93 in 9.0 mi SSW 3.5 mph - 0.01 in   Mostly Cloudy
4:13 AM 64.4 °F 64.4 °F 100% 29.95 in 8.0 mi South 4.6 mph - N/A   Overcast
4:54 AM 64.9 °F 64.0 °F 97% 29.91 in 10.0 mi South 5.8 mph - N/A   Overcast
5:17 AM 64.4 °F 64.4 °F 100% 29.95 in 10.0 mi SSW 8.1 mph - N/A   Overcast
5:54 AM 64.9 °F 64.0 °F 97% 29.92 in 10.0 mi SSW 6.9 mph - N/A   Overcast
6:42 AM 64.4 °F 64.4 °F 100% 29.95 in 10.0 mi SSW 3.5 mph - N/A   Overcast
6:54 AM 64.9 °F 64.0 °F 97% 29.92 in 9.0 mi SW 3.5 mph - N/A   Overcast
7:26 AM 64.4 °F 64.4 °F 100% 29.96 in 8.0 mi SSW 5.8 mph - N/A   Overcast
7:54 AM 66.0 °F 64.0 °F 93% 29.94 in 8.0 mi SSW 8.1 mph - N/A   Overcast
8:38 AM 68.0 °F 64.4 °F 88% 29.95 in 10.0 mi SSW 6.9 mph - N/A   Mostly Cloudy
8:54 AM 68.0 °F 64.9 °F 90% 29.93 in 10.0 mi Calm Calm - N/A   Overcast
9:50 AM 69.8 °F 64.4 °F 83% 29.94 in 10.0 mi SW 4.6 mph - 0.00 in Rain Light Rain
9:54 AM 69.1 °F 64.9 °F 87% 29.92 in 10.0 mi SSW 5.8 mph - 0.00 in Rain Light Rain
10:54 AM 70.0 °F 64.9 °F 84% 29.93 in 10.0 mi SW 4.6 mph - 0.00 in   Mostly Cloudy
11:54 AM 71.1 °F 64.9 °F 81% 29.92 in 10.0 mi SSW 8.1 mph - N/A   Partly Cloudy
12:54 PM 73.9 °F 64.9 °F 73% 29.91 in 10.0 mi South 10.4 mph - N/A   Mostly Cloudy
1:54 PM 73.0 °F 66.0 °F 79% 29.89 in 10.0 mi SSW 4.6 mph - 0.00 in Rain Light Rain
2:54 PM 75.0 °F 66.0 °F 73% 29.86 in 10.0 mi South 11.5 mph - 0.00 in   Mostly Cloudy
3:07 PM 75.2 °F 66.2 °F 73% 29.88 in 10.0 mi South 10.4 mph - N/A   Scattered Clouds
3:54 PM 75.9 °F 66.0 °F 71% 29.83 in 10.0 mi South 9.2 mph - N/A   Clear
4:54 PM 77.0 °F 64.9 °F 66% 29.81 in 10.0 mi South 8.1 mph - N/A   Partly Cloudy
5:54 PM 75.9 °F 66.0 °F 71% 29.81 in 10.0 mi South 8.1 mph - N/A   Clear
6:54 PM 73.9 °F 66.0 °F 76% 29.80 in 10.0 mi SSW 4.6 mph - N/A   Clear
7:54 PM 73.0 °F 66.0 °F 79% 29.79 in 10.0 mi SSW 5.8 mph - N/A   Clear
8:26 PM 71.6 °F 66.2 °F 83% 29.82 in 10.0 mi South 5.8 mph - N/A   Mostly Cloudy
8:41 PM 69.8 °F 66.2 °F 88% 29.83 in 10.0 mi WSW 3.5 mph - N/A   Scattered Clouds
8:48 PM 71.6 °F 66.2 °F 83% 29.85 in 10.0 mi WSW 5.8 mph - N/A Thunderstorm Thunderstorm
8:54 PM 71.6 °F 64.4 °F 78% 29.85 in 10.0 mi West 12.7 mph 23.0 mph N/A Thunderstorm Thunderstorm
9:54 PM 63.0 °F 61.0 °F 93% 29.87 in 9.0 mi Calm Calm - 0.05 in Rain , Thunderstorm Light Thunderstorms and Rain
10:05 PM 62.6 °F 60.8 °F 94% 29.90 in 5.0 mi Calm Calm - 0.02 in Rain Rain
10:54 PM 62.1 °F 61.0 °F 96% 29.86 in 10.0 mi Calm Calm - 0.04 in Rain Light Rain
11:54 PM 61.0 °F 60.1 °F 97% 29.84 in 10.0 mi Calm Calm - 0.00 in   Partly Cloudy